FW6772 Weather Reports


time (UTC)temp
C
wind
direction
speed
KPH
gust
KPH
rain 1hr
cm
rain 24hr
cm
rain mn
cm
humidity
%
barometer
mb
20260504190040 25 266 11.3 22.5 0.00 0.00 0.00 29 1009.9
20260504185540 25 295 9.7 22.5 0.00 0.00 0.00 29 1009.9
20260504185035 25 308 9.7 24.1 0.00 0.00 0.00 29 1009.9
20260504184530 25 301 12.9 24.1 0.00 0.00 0.00 28 1010.0
20260504184029 25 271 9.7 24.1 0.00 0.00 0.00 30 1010.0
20260504183529 25 272 9.7 24.1 0.00 0.00 0.00 29 1010.2
20260504183024 25 282 9.7 22.5 0.00 0.00 0.00 28 1010.0
20260504182519 25 302 14.5 22.5 0.00 0.00 0.00 30 1010.2
20260504182016 25 281 9.7 17.7 0.00 0.00 0.00 30 1010.1
20260504181514 25 289 9.7 17.7 0.00 0.00 0.00 30 1010.3
20260504181014 25 302 6.4 12.9 0.00 0.00 0.00 32 1010.4
20260504180002 25 296 9.7 12.9 0.00 0.00 0.00 31 1010.4
20260504175503 24 333 4.8 9.7 0.00 0.00 0.00 30 1010.4
20260504174957 24 314 4.8 9.7 0.00 0.00 0.00 31 1010.7
20260504174454 24 314 3.2 6.4 0.00 0.00 0.00 30 1010.6
20260504173946 23 143 3.2 6.4 0.00 0.00 0.00 31 1010.7
20260504172947 23 228 0.0 6.4 0.00 0.00 0.00 39 1010.9
20260504172445 22 317 1.6 6.4 0.00 0.00 0.00 36 1011.0
20260504171946 22 167 3.2 4.8 0.00 0.00 0.00 41 1010.9
20260504171440 22 209 1.6 3.2 0.00 0.00 0.00 40 1011.0
20260504160349 17 129 0.0 1.6 0.00 0.00 0.00 53 1011.6
20260504150830 12 280 0.0 1.6 0.00 0.00 0.00 64 1012.1
20260504150319 12 297 0.0 1.6 0.00 0.00 0.00 65 1012.0
20260504141236 10 49 0.0 0.0 0.00 0.00 0.00 64 1011.9
20260504140724 10 49 0.0 0.0 0.00 0.00 0.00 62 1012.0
20260504140225 10 49 0.0 1.6 0.00 0.00 0.00 64 1011.9
20260504130640 10 91 0.0 1.6 0.00 0.00 0.00 61 1011.8
20260504130140 10 91 0.0 1.6 0.00 0.00 0.00 61 1011.6
20260504110533 10 75 1.6 3.2 0.00 0.00 0.00 60 1011.5
20260504100445 12 22 1.6 4.8 0.00 0.00 0.00 56 1011.5
20260504081848 15 332 1.6 3.2 0.00 0.00 0.00 48 1011.4
20260504081348 15 0 1.6 4.8 0.00 0.00 0.00 46 1011.3
20260504080348 15 337 3.2 6.4 0.00 0.00 0.00 46 1011.4
20260504070330 15 15 0.0 3.2 0.00 0.00 0.00 48 1011.2
20260504050736 17 46 3.2 3.2 0.00 0.00 0.00 42 1010.9
20260504050230 17 33 1.6 4.8 0.00 0.00 0.00 42 1010.9
20260504045730 18 17 1.6 4.8 0.00 0.00 0.00 41 1010.9
20260504045224 18 343 1.6 3.2 0.00 0.00 0.00 41 1010.9
20260504044720 18 39 1.6 3.2 0.00 0.00 0.00 40 1010.7
20260504044214 18 5 1.6 3.2 0.00 0.00 0.00 39 1010.8
20260504043708 18 60 0.0 1.6 0.00 0.00 0.00 38 1010.7
20260504043158 19 338 0.0 3.2 0.00 0.00 0.00 37 1010.7
20260504042656 20 0 1.6 4.8 0.00 0.00 0.00 36 1010.8
20260504041647 20 49 0.0 3.2 0.00 0.00 0.00 35 1010.6
20260504041147 20 321 0.0 3.2 0.00 0.00 0.00 34 1010.4
20260504040644 21 40 0.0 1.6 0.00 0.00 0.00 33 1010.4
20260504040136 20 68 0.0 3.2 0.00 0.00 0.00 33 1010.3
20260504034606 21 82 3.2 8.0 0.00 0.00 0.00 32 1010.4
20260504034107 22 140 1.6 6.4 0.00 0.00 0.00 30 1010.2
20260504033603 22 138 0.0 6.4 0.00 0.00 0.00 29 1010.1
20260504033045 22 324 1.6 4.8 0.00 0.00 0.00 29 1010.1
20260504032546 22 32 3.2 11.3 0.00 0.00 0.00 29 1010.0
20260504032040 23 34 3.2 12.9 0.00 0.00 0.00 28 1010.0
20260504031030 24 320 6.4 14.5 0.00 0.00 0.00 26 1009.9
20260504030526 23 332 6.4 11.3 0.00 0.00 0.00 26 1009.7
20260504025517 25 329 4.8 6.4 0.00 0.00 0.00 27 1009.8
20260504025013 25 311 1.6 8.0 0.00 0.00 0.00 27 1009.7
20260504024507 25 264 3.2 11.3 0.00 0.00 0.00 29 1009.7
20260504024001 25 297 6.4 11.3 0.00 0.00 0.00 28 1009.7
20260504023501 26 304 4.8 11.3 0.00 0.00 0.00 28 1009.6
20260504022955 26 309 4.8 11.3 0.00 0.00 0.00 27 1009.5
20260504022448 26 290 6.4 14.5 0.00 0.00 0.00 26 1009.6
20260504021949 26 322 4.8 14.5 0.00 0.00 0.00 26 1009.5
20260504021449 27 276 4.8 11.3 0.00 0.00 0.00 26 1009.5
20260504020951 27 288 4.8 11.3 0.00 0.00 0.00 26 1009.5
20260504020443 27 267 4.8 9.7 0.00 0.00 0.00 25 1009.6
20260504015944 27 259 6.4 11.3 0.00 0.00 0.00 24 1009.6
20260504015444 27 254 6.4 11.3 0.00 0.00 0.00 25 1009.6
20260504014939 27 259 6.4 11.3 0.00 0.00 0.00 25 1009.5
20260504014433 28 288 3.2 11.3 0.00 0.00 0.00 25 1009.6
20260504013933 28 297 6.4 17.7 0.00 0.00 0.00 24 1009.7
20260504013427 28 311 8.0 17.7 0.00 0.00 0.00 24 1009.6
20260504012921 28 265 6.4 14.5 0.00 0.00 0.00 23 1009.6
20260504012415 28 296 6.4 12.9 0.00 0.00 0.00 24 1009.7
20260504011915 28 302 6.4 14.5 0.00 0.00 0.00 23 1009.7
20260504011409 28 268 6.4 14.5 0.00 0.00 0.00 23 1009.6
20260504010903 28 259 6.4 17.7 0.00 0.00 0.00 23 1009.7
20260504010358 28 288 12.9 17.7 0.00 0.00 0.00 22 1009.7
20260504005858 28 314 9.7 22.5 0.00 0.00 0.00 22 1009.7
20260504004856 28 293 9.7 19.3 0.00 0.00 0.00 21 1009.9
20260504004356 29 291 6.4 14.5 0.00 0.00 0.00 22 1009.9
20260504003857 29 307 4.8 11.3 0.00 0.00 0.00 21 1010.0
20260504003350 28 316 3.2 12.9 0.00 0.00 0.00 24 1010.0
20260504001840 29 51 6.4 14.5 0.00 0.00 0.00 22 1010.2
20260504000840 28 238 3.2 12.9 0.00 0.00 0.00 23 1010.1
20260503235828 28 294 8.0 14.5 0.00 0.00 0.00 21 1010.2
20260503234823 28 297 6.4 22.5 0.00 0.00 0.00 23 1010.1
20260503233812 28 167 4.8 19.3 0.00 0.00 0.00 19 1010.2
20260503233306 28 221 8.0 20.9 0.00 0.00 0.00 20 1010.4
20260503232805 28 316 12.9 20.9 0.00 0.00 0.00 19 1010.3
20260503231754 28 269 3.2 9.7 0.00 0.00 0.00 23 1010.7
20260503231254 28 319 4.8 8.0 0.00 0.00 0.00 20 1010.6
20260503230243 28 262 4.8 17.7 0.00 0.00 0.00 21 1010.8
20260503225743 28 246 6.4 17.7 0.00 0.00 0.00 20 1010.8
20260503225243 28 309 4.8 14.5 0.00 0.00 0.00 21 1010.8
20260503224737 28 311 6.4 14.5 0.00 0.00 0.00 23 1011.0
20260503224238 28 262 6.4 22.5 0.00 0.00 0.00 19 1011.2
20260503223738 28 290 14.5 22.5 0.00 0.00 0.00 21 1011.1
20260503223232 28 188 3.2 11.3 0.00 0.00 0.00 24 1011.3
20260503222731 28 169 8.0 14.5 0.00 0.00 0.00 21 1011.4
20260503222227 28 262 9.7 14.5 0.00 0.00 0.00 22 1011.6
20260503221727 28 298 1.6 12.9 0.00 0.00 0.00 22 1011.5
20260503220716 28 302 3.2 14.5 0.00 0.00 0.00 22 1011.6
20260503220211 28 263 6.4 8.0 0.00 0.00 0.00 21 1011.7
20260503215706 28 356 1.6 11.3 0.00 0.00 0.00 22 1011.6
20260503215206 28 26 6.4 12.9 0.00 0.00 0.00 22 1011.8
20260503214700 27 310 8.0 12.9 0.00 0.00 0.00 21 1012.0
20260503214200 28 248 3.2 17.7 0.00 0.00 0.00 21 1012.0
20260503213154 28 52 1.6 6.4 0.00 0.00 0.00 20 1012.0
20260503212655 28 328 1.6 9.7 0.00 0.00 0.00 23 1012.1
20260503211649 27 226 3.2 14.5 0.00 0.00 0.00 21 1012.3
20260503211144 27 270 8.0 14.5 0.00 0.00 0.00 21 1012.5
20260503205633 27 289 3.2 17.7 0.00 0.00 0.00 23 1012.5
20260503204629 27 323 3.2 6.4 0.00 0.00 0.00 22 1012.9
20260503204125 27 307 1.6 6.4 0.00 0.00 0.00 22 1012.9
20260503203622 27 116 3.2 9.7 0.00 0.00 0.00 25 1012.9
20260503203115 26 92 1.6 14.5 0.00 0.00 0.00 22 1013.0
20260503202611 26 338 8.0 14.5 0.00 0.00 0.00 23 1013.1
20260503202105 26 300 6.4 12.9 0.00 0.00 0.00 25 1013.2
20260503201600 26 310 4.8 8.0 0.00 0.00 0.00 24 1013.3
20260503201101 26 165 3.2 14.5 0.00 0.00 0.00 24 1013.4
20260503200556 26 302 6.4 14.5 0.00 0.00 0.00 24 1013.4
20260503195546 26 299 3.2 12.9 0.00 0.00 0.00 27 1013.6
20260503195042 26 221 4.8 14.5 0.00 0.00 0.00 24 1013.6
20260503194537 26 288 6.4 14.5 0.00 0.00 0.00 24 1013.7
20260503194032 26 319 6.4 12.9 0.00 0.00 0.00 25 1014.0
20260503193527 26 326 6.4 11.3 0.00 0.00 0.00 26 1014.0
20260503193023 26 240 6.4 12.9 0.00 0.00 0.00 25 1014.1
20260503192518 26 328 6.4 12.9 0.00 0.00 0.00 25 1014.1
20260503192013 26 266 3.2 12.9 0.00 0.00 0.00 27 1014.2
20260503191508 25 258 6.4 9.7 0.00 0.00 0.00 27 1014.3
20260503191002 25 252 1.6 8.0 0.00 0.00 0.00 30 1014.2